Погода в Магуэ

Мьянма     20°07′36″N   94°55′59″E
темп.,
°C
ветер,
м/с
пор.,
м/с
влажн.,
%
обл.,
%
осадки,
мм/ч
давл.,
гПа
погр.,
м
24 января, пн
пн2400:30+20зсз11500 0.0 101111
03:30+18сз22595 0.0 101017
06:30+17з11635 0.0 101111
09:30+22зюз11494 0.0 1013409
12:30+27з22360 0.0 10111180
15:30+29ю13280 0.0 10081573
18:30+25всв33351 0.0 100823
21:30+23юз22390 0.0 101015
25 января, вт
вт2500:30+20зсз34505 0.0 101172
03:30+18ссз22623 0.0 101035
06:30+17сз117131 0.0 101217
09:30+21зсз215553 0.0 1014447
12:30+25зсз224313 0.0 10121055
15:30+28з23346 0.0 10091426
18:30+24св11430 0.0 100911
21:30+22ю11470 0.0 101112
26 января, ср
ср2600:30+20зсз11531 0.0 101111
03:30+18сз22631 0.0 101015
06:30+17сз226835 0.0 101129
09:30+21сз225741 0.0 1014303
12:30+26зсз214283 0.0 1012953
15:30+28з11373 0.0 1008808
18:30+24юв11451 0.0 100811
21:30+23з11480 0.0 101011
27 января, чт
чт2700:30+21зсз11550 0.0 101011
03:30+19сз11622 0.0 101011
06:30+18зсз12673 0.0 101113
09:30+23зсз22513 0.0 1013402
12:30+28зсз32364 0.0 10111212
15:30+30юз12302 0.0 10081788
18:30+27всв223615 0.0 100812
21:30+23зюз33450 0.0 101036
28 января, пт
пт2800:30+21зсз35551 0.0 101088
03:30+19ссз23603 0.0 101054
06:30+18сз22630 0.0 101122
09:30+23з22472 0.0 1014449
12:30+28з23355 0.0 10111044
15:30+30ю05273 0.0 10071894
18:30+26зюз510275 0.0 1007196
21:30+21з39445 0.0 1009169